カタログに戻る

GSAT 2

運用中通信GEO
NORAD 27807·PAYLOAD·🇮🇳 India

打ち上げ May 8, 2003 から Satish Dhawan Space Centre

Loading…

TLE

最新Source: Space-Track

元期: Sep 14, 2026, 04:18 UTC

1 27807U 03018A   26257.17922388 -.00000208  00000-0  00000-0 0  9999
2 27807  11.3458  40.8860 0010109 347.3902 189.6651  0.99859134 85325

AllMySatでGSAT 2をリアルタイム追跡

Download on the App Store